When you browse on this site, cookies collect data to enhance your experience and personalize the content and advertising you see.
Visit our Privacy Policy to learn more. By continuing to use the site, you agree to this use of cookies and data.
  • în România
  • Lista ţărilor
  • Pe 7 zile
  • Temperatura apei
  • Hartă satelitară
  • Meteo pe hartă
  • Widget-uri
  • user-avatar
    Intrare

    Meteo pe oră la Mandelieu-la-Napoule

    Astăzi, 19 Iunie, Miercuri

    Timp Temperatura Precipitaţii Vânt Presiune Umiditate
    00:00 +23°C° 0 mm 2 m/s 753 mmHg 55%
    01:00 +21°C° 0 mm 2 m/s 752 mmHg 54%
    02:00 +21°C° 0 mm 2 m/s 752 mmHg 54%
    03:00 +22°C° 0 mm 1 m/s 752 mmHg 53%
    04:00 +23°C° 0 mm 1 m/s 752 mmHg 52%
    05:00 +24°C° 0 mm 1 m/s 752 mmHg 51%
    06:00 +26°C° 0 mm 1 m/s 752 mmHg 51%
    07:00 +27°C° 0 mm 1 m/s 752 mmHg 46%
    08:00 +29°C° 0 mm 1 m/s 752 mmHg 40%
    09:00 +30°C° 0 mm 2 m/s 752 mmHg 34%
    10:00 +31°C° 0 mm 3 m/s 752 mmHg 33%
    11:00 +31°C° 0 mm 3 m/s 752 mmHg 31%
    12:00 +33°C° 0 mm 4 m/s 752 mmHg 29%
    13:00 +33°C° 0 mm 5 m/s 752 mmHg 28%
    14:00 +33°C° 0 mm 5 m/s 752 mmHg 27%
    15:00 +33°C° 0 mm 5 m/s 751 mmHg 26%
    16:00 +32°C° 0 mm 5 m/s 751 mmHg 29%
    17:00 +30°C° 0 mm 5 m/s 751 mmHg 32%
    18:00 +28°C° 0 mm 5 m/s 751 mmHg 35%
    19:00 +27°C° 0 mm 5 m/s 751 mmHg 37%
    20:00 +25°C° 0 mm 4 m/s 751 mmHg 40%
    21:00 +22°C° 0 mm 4 m/s 752 mmHg 42%
    22:00 +22°C° 0 mm 4 m/s 752 mmHg 43%
    23:00 +21°C° 0 mm 3 m/s 751 mmHg 45%

    Mâine, 20 Iunie, Joi

    Timp Temperatura Precipitaţii Vânt Presiune Umiditate
    00:00 +21°C° 0 mm 3 m/s 751 mmHg 47%
    01:00 +21°C° 0 mm 2 m/s 751 mmHg 46%
    02:00 +20°C° 0 mm 2 m/s 751 mmHg 46%
    03:00 +20°C° 0 mm 2 m/s 751 mmHg 45%
    04:00 +22°C° 0 mm 1 m/s 751 mmHg 45%
    05:00 +23°C° 0 mm 1 m/s 751 mmHg 44%
    06:00 +22°C° 0 mm 0 m/s 751 mmHg 44%
    07:00 +26°C° 0 mm 1 m/s 751 mmHg 41%
    08:00 +27°C° 0 mm 1 m/s 751 mmHg 39%
    09:00 +29°C° 0 mm 2 m/s 751 mmHg 36%
    10:00 +29°C° 0 mm 2 m/s 751 mmHg 36%
    11:00 +30°C° 0 mm 2 m/s 751 mmHg 35%
    12:00 +31°C° 0 mm 3 m/s 751 mmHg 35%
    13:00 +30°C° 0 mm 3 m/s 751 mmHg 37%
    14:00 +30°C° 0 mm 3 m/s 751 mmHg 39%
    15:00 +30°C° 0 mm 4 m/s 750 mmHg 41%
    16:00 +28°C° 0 mm 3 m/s 751 mmHg 48%
    17:00 +27°C° 0 mm 2 m/s 751 mmHg 55%
    18:00 +26°C° 0 mm 2 m/s 751 mmHg 62%
    19:00 +25°C° 0 mm 2 m/s 751 mmHg 65%
    20:00 +24°C° 0 mm 1 m/s 751 mmHg 69%
    21:00 +22°C° 0 mm 1 m/s 751 mmHg 72%
    22:00 +22°C° 0 mm 1 m/s 751 mmHg 74%
    23:00 +22°C° 0 mm 1 m/s 752 mmHg 75%

    Poimâine, 21 Iunie, Vineri

    Timp Temperatura Precipitaţii Vânt Presiune Umiditate
    00:00 +22°C° 0 mm 1 m/s 752 mmHg 77%
    01:00 +21°C° 0 mm 1 m/s 752 mmHg 78%
    02:00 +21°C° 0 mm 1 m/s 752 mmHg 80%
    03:00 +21°C° 0 mm 1 m/s 752 mmHg 82%
    04:00 +22°C° 0 mm 1 m/s 752 mmHg 79%
    05:00 +23°C° 0 mm 2 m/s 752 mmHg 76%
    06:00 +24°C° 0 mm 2 m/s 752 mmHg 73%
    07:00 +25°C° 0 mm 2 m/s 752 mmHg 68%
    08:00 +27°C° 0 mm 3 m/s 752 mmHg 63%
    09:00 +28°C° 0 mm 3 m/s 752 mmHg 58%
    10:00 +28°C° 0.1 mm 3 m/s 752 mmHg 57%
    11:00 +29°C° 0.1 mm 3 m/s 752 mmHg 56%
    12:00 +29°C° 0.1 mm 3 m/s 752 mmHg 54%
    13:00 +29°C° 0.2 mm 3 m/s 752 mmHg 54%
    14:00 +29°C° 0.2 mm 3 m/s 751 mmHg 54%
    15:00 +29°C° 0.2 mm 2 m/s 751 mmHg 54%
    16:00 +28°C° 0.1 mm 2 m/s 751 mmHg 58%
    17:00 +27°C° 0.1 mm 1 m/s 751 mmHg 63%
    18:00 +26°C° 0.1 mm 1 m/s 751 mmHg 67%
    19:00 +25°C° 0.1 mm 1 m/s 751 mmHg 72%
    20:00 +23°C° 0.1 mm 1 m/s 751 mmHg 77%
    21:00 +20°C° 0.1 mm 0 m/s 752 mmHg 82%
    22:00 +20°C° 0 mm 0 m/s 752 mmHg 83%
    23:00 +19°C° 0 mm 0 m/s 752 mmHg 84%

    22 Iunie, Sâmbătă

    Timp Temperatura Precipitaţii Vânt Presiune Umiditate
    00:00 +19°C° 0 mm 0 m/s 751 mmHg 85%
    01:00 +19°C° 0 mm 0 m/s 751 mmHg 84%
    02:00 +19°C° 0 mm 0 m/s 751 mmHg 84%
    03:00 +18°C° 0 mm 0 m/s 751 mmHg 84%
    04:00 +20°C° 0 mm 0 m/s 751 mmHg 80%
    05:00 +21°C° 0 mm 0 m/s 751 mmHg 75%
    06:00 +22°C° 0 mm 0 m/s 751 mmHg 70%
    07:00 +25°C° 0.1 mm 1 m/s 751 mmHg 67%
    08:00 +26°C° 0.1 mm 1 m/s 751 mmHg 64%
    09:00 +28°C° 0.1 mm 2 m/s 751 mmHg 61%
    10:00 +28°C° 0.1 mm 2 m/s 751 mmHg 60%
    11:00 +28°C° 0.1 mm 3 m/s 751 mmHg 59%
    12:00 +29°C° 0.1 mm 3 m/s 751 mmHg 58%
    13:00 +29°C° 0.1 mm 3 m/s 751 mmHg 58%
    14:00 +29°C° 0.1 mm 3 m/s 751 mmHg 57%
    15:00 +29°C° 0.1 mm 3 m/s 751 mmHg 56%
    16:00 +28°C° 0 mm 2 m/s 751 mmHg 60%
    17:00 +27°C° 0 mm 2 m/s 751 mmHg 64%
    18:00 +26°C° 0 mm 2 m/s 751 mmHg 68%
    19:00 +25°C° 0 mm 1 m/s 751 mmHg 72%
    20:00 +24°C° 0 mm 1 m/s 751 mmHg 76%
    21:00 +22°C° 0 mm 1 m/s 752 mmHg 80%
    22:00 +22°C° 0 mm 1 m/s 752 mmHg 80%
    23:00 +22°C° 0 mm 1 m/s 752 mmHg 80%

    23 Iunie, Duminică

    Timp Temperatura Precipitaţii Vânt Presiune Umiditate
    00:00 +22°C° 0 mm 1 m/s 752 mmHg 80%
    01:00 +20°C° 0 mm 2 m/s 752 mmHg 64%
    02:00 +20°C° 0 mm 2 m/s 752 mmHg 64%
    03:00 +19°C° 0 mm 2 m/s 752 mmHg 64%
    04:00 +21°C° 0 mm 2 m/s 752 mmHg 62%
    05:00 +23°C° 0 mm 2 m/s 752 mmHg 59%
    06:00 +24°C° 0 mm 1 m/s 752 mmHg 57%
    07:00 +26°C° 0 mm 2 m/s 753 mmHg 50%
    08:00 +29°C° 0 mm 2 m/s 753 mmHg 43%
    09:00 +31°C° 0 mm 3 m/s 753 mmHg 36%
    10:00 +31°C° 0 mm 3 m/s 753 mmHg 42%
    11:00 +30°C° 0 mm 3 m/s 753 mmHg 48%
    12:00 +30°C° 0 mm 3 m/s 753 mmHg 54%
    13:00 +30°C° 0 mm 3 m/s 753 mmHg 53%
    14:00 +30°C° 0 mm 3 m/s 753 mmHg 52%
    15:00 +31°C° 0 mm 3 m/s 753 mmHg 51%
    16:00 +29°C° 0 mm 3 m/s 753 mmHg 56%
    17:00 +28°C° 0 mm 2 m/s 753 mmHg 60%
    18:00 +27°C° 0 mm 2 m/s 753 mmHg 65%
    19:00 +26°C° 0 mm 2 m/s 753 mmHg 70%
    20:00 +25°C° 0 mm 2 m/s 754 mmHg 74%
    21:00 +24°C° 0 mm 2 m/s 754 mmHg 79%
    22:00 +23°C° 0 mm 2 m/s 754 mmHg 77%
    23:00 +23°C° 0 mm 2 m/s 754 mmHg 74%

    24 Iunie, Luni

    Timp Temperatura Precipitaţii Vânt Presiune Umiditate
    00:00 +22°C° 0 mm 3 m/s 754 mmHg 72%
    01:00 +23°C° 0 mm 2 m/s 754 mmHg 70%
    02:00 +23°C° 0 mm 2 m/s 754 mmHg 68%
    03:00 +23°C° 0 mm 2 m/s 754 mmHg 66%
    04:00 +24°C° 0 mm 2 m/s 754 mmHg 63%
    05:00 +26°C° 0 mm 2 m/s 755 mmHg 60%
    06:00 +27°C° 0 mm 2 m/s 755 mmHg 57%
    07:00 +29°C° 0 mm 3 m/s 755 mmHg 51%
    08:00 +31°C° 0 mm 3 m/s 755 mmHg 46%
    09:00 +34°C° 0 mm 4 m/s 755 mmHg 41%
    10:00 +34°C° 0 mm 4 m/s 755 mmHg 39%
    11:00 +35°C° 0 mm 4 m/s 755 mmHg 38%
    12:00 +35°C° 0 mm 4 m/s 755 mmHg 36%
    13:00 +35°C° 0 mm 4 m/s 755 mmHg 36%
    14:00 +35°C° 0 mm 3 m/s 755 mmHg 36%
    15:00 +35°C° 0 mm 3 m/s 755 mmHg 36%
    16:00 +34°C° 0 mm 2 m/s 755 mmHg 40%
    17:00 +32°C° 0 mm 2 m/s 755 mmHg 44%
    18:00 +31°C° 0 mm 1 m/s 755 mmHg 48%
    19:00 +30°C° 0 mm 1 m/s 756 mmHg 50%
    20:00 +28°C° 0 mm 2 m/s 756 mmHg 53%
    21:00 +27°C° 0 mm 2 m/s 757 mmHg 55%
    22:00 +27°C° 0 mm 2 m/s 757 mmHg 55%
    23:00 +27°C° 0 mm 2 m/s 757 mmHg 55%
    Arată mai mult